Time,TemperatureF,DewpointF,PressureIn,WindDirection,WindDirectionDegrees,WindSpeedMPH,WindSpeedGustMPH,Humidity,HourlyPrecipIn,Conditions,Clouds,dailyrainin,SoftwareType,DateUTC
2013-05-29 00:00:00,67.6,67.6,30.10,ESE,123,0.0,17.0,100,0.00,,,0.00,Wunderground v.1.15,2013-05-29 04:00:00,
2013-05-29 00:05:00,67.7,67.7,30.10,ESE,123,0.0,17.0,100,0.00,,,0.00,Wunderground v.1.15,2013-05-29 04:05:00,
2013-05-29 00:10:00,67.6,67.6,30.10,ESE,123,0.0,17.0,100,0.00,,,0.00,Wunderground v.1.15,2013-05-29 04:10:00,
2013-05-29 00:15:00,67.6,67.6,30.10,ESE,123,0.0,17.0,100,0.00,,,0.00,Wunderground v.1.15,2013-05-29 04:15:00,
2013-05-29 00:20:00,67.6,67.6,30.10,ESE,123,0.0,17.0,100,0.00,,,0.00,Wunderground v.1.15,2013-05-29 04:20:00,
2013-05-29 00:25:00,67.6,67.6,30.10,ESE,123,0.0,17.0,100,0.00,,,0.00,Wunderground v.1.15,2013-05-29 04:25:00,
2013-05-29 00:30:00,67.6,67.6,30.10,ESE,123,0.0,17.0,100,0.00,,,0.00,Wunderground v.1.15,2013-05-29 04:30:00,
2013-05-29 00:40:00,67.6,67.6,30.10,ESE,123,0.0,17.0,100,0.00,,,0.00,Wunderground v.1.15,2013-05-29 04:40:00,
2013-05-29 00:45:00,67.7,67.7,30.10,ESE,123,0.0,17.0,100,0.00,,,0.00,Wunderground v.1.15,2013-05-29 04:45:00,
2013-05-29 00:50:00,67.7,67.7,30.10,ESE,123,0.0,17.0,100,0.00,,,0.00,Wunderground v.1.15,2013-05-29 04:50:00,
2013-05-29 00:55:00,67.6,67.6,30.10,ESE,123,0.0,17.0,100,0.00,,,0.00,Wunderground v.1.15,2013-05-29 04:55:00,
2013-05-29 01:00:00,67.6,67.6,30.10,ESE,123,0.0,17.0,100,0.00,,,0.00,Wunderground v.1.15,2013-05-29 05:00:00,
2013-05-29 01:10:00,67.6,67.6,30.10,ESE,123,0.0,17.0,100,0.00,,,0.00,Wunderground v.1.15,2013-05-29 05:10:00,
2013-05-29 01:15:00,67.6,67.6,30.10,SW,227,0.0,17.0,100,0.00,,,0.00,Wunderground v.1.15,2013-05-29 05:15:00,
2013-05-29 01:20:00,67.7,67.7,30.10,SW,234,0.0,17.0,100,0.00,,,0.00,Wunderground v.1.15,2013-05-29 05:20:00,
2013-05-29 01:25:00,67.8,67.8,30.10,SW,234,0.0,17.0,100,0.00,,,0.00,Wunderground v.1.15,2013-05-29 05:25:00,
2013-05-29 01:30:00,67.8,67.8,30.10,SW,234,0.0,17.0,100,0.00,,,0.00,Wunderground v.1.15,2013-05-29 05:30:00,
2013-05-29 01:40:00,67.9,67.9,30.10,SSW,209,0.0,17.0,100,0.00,,,0.00,Wunderground v.1.15,2013-05-29 05:40:00,
2013-05-29 01:45:00,67.9,67.9,30.10,SSW,209,1.0,17.0,100,0.00,,,0.00,Wunderground v.1.15,2013-05-29 05:45:00,
2013-05-29 01:50:00,67.9,67.9,30.10,SSW,209,0.0,17.0,100,0.00,,,0.00,Wunderground v.1.15,2013-05-29 05:50:00,
2013-05-29 01:55:00,67.9,67.9,30.09,SSW,209,0.0,17.0,100,0.00,,,0.00,Wunderground v.1.15,2013-05-29 05:55:00,
2013-05-29 02:00:00,67.9,67.6,30.09,SW,236,1.0,1.0,99,0.00,,,0.00,Wunderground v.1.15,2013-05-29 06:00:00,
2013-05-29 02:10:00,68.0,67.7,30.09,WSW,237,1.0,17.0,99,0.00,,,0.00,Wunderground v.1.15,2013-05-29 06:10:00,
2013-05-29 02:15:00,68.0,67.7,30.09,WSW,237,1.0,17.0,99,0.00,,,0.00,Wunderground v.1.15,2013-05-29 06:15:00,
2013-05-29 02:20:00,68.0,67.7,30.09,WSW,251,1.0,1.0,99,0.00,,,0.00,Wunderground v.1.15,2013-05-29 06:20:00,
2013-05-29 02:30:00,68.0,67.7,30.09,SW,234,1.0,1.0,99,0.00,,,0.00,Wunderground v.1.15,2013-05-29 06:30:00,
2013-05-29 02:35:00,68.0,67.4,30.09,SW,235,0.0,2.0,98,0.00,,,0.00,Wunderground v.1.15,2013-05-29 06:35:00,
2013-05-29 02:40:00,68.0,67.4,30.09,SW,234,0.0,17.0,98,0.00,,,0.00,Wunderground v.1.15,2013-05-29 06:40:00,
2013-05-29 02:45:00,67.9,67.3,30.09,SW,234,0.0,17.0,98,0.00,,,0.00,Wunderground v.1.15,2013-05-29 06:45:00,
2013-05-29 02:50:00,67.9,67.3,30.09,SW,235,0.0,17.0,98,0.00,,,0.00,Wunderground v.1.15,2013-05-29 06:50:00,
2013-05-29 03:00:00,67.8,67.2,30.09,SW,235,0.0,17.0,98,0.00,,,0.00,Wunderground v.1.15,2013-05-29 07:00:00,
2013-05-29 03:05:00,67.8,67.2,30.09,SW,215,0.0,17.0,98,0.00,,,0.00,Wunderground v.1.15,2013-05-29 07:05:00,
2013-05-29 03:10:00,67.7,67.1,30.09,SW,215,0.0,17.0,98,0.00,,,0.00,Wunderground v.1.15,2013-05-29 07:10:00,
2013-05-29 03:15:00,67.7,67.1,30.09,SW,232,0.0,17.0,98,0.00,,,0.00,Wunderground v.1.15,2013-05-29 07:15:00,
2013-05-29 03:20:00,67.7,67.1,30.09,SW,232,0.0,17.0,98,0.00,,,0.00,Wunderground v.1.15,2013-05-29 07:20:00,
2013-05-29 03:30:00,67.6,67.0,30.09,SW,218,0.0,17.0,98,0.00,,,0.00,Wunderground v.1.15,2013-05-29 07:30:00,
2013-05-29 03:35:00,67.6,67.0,30.09,SW,226,1.0,17.0,98,0.00,,,0.00,Wunderground v.1.15,2013-05-29 07:35:00,
2013-05-29 03:40:00,67.6,67.0,30.09,WSW,240,1.0,1.0,98,0.00,,,0.00,Wunderground v.1.15,2013-05-29 07:40:00,
2013-05-29 03:45:00,67.6,67.0,30.09,WSW,240,0.0,17.0,98,0.00,,,0.00,Wunderground v.1.15,2013-05-29 07:45:00,
2013-05-29 03:50:00,67.6,67.0,30.09,WSW,240,0.0,17.0,98,0.00,,,0.00,Wunderground v.1.15,2013-05-29 07:50:00,
2013-05-29 04:00:00,67.5,66.9,30.09,SW,235,0.0,17.0,98,0.00,,,0.00,Wunderground v.1.15,2013-05-29 08:00:00,
2013-05-29 04:05:00,67.4,66.8,30.09,WSW,245,0.0,17.0,98,0.00,,,0.00,Wunderground v.1.15,2013-05-29 08:05:00,
2013-05-29 04:10:00,67.4,66.8,30.09,WSW,245,0.0,17.0,98,0.00,,,0.00,Wunderground v.1.15,2013-05-29 08:10:00,
2013-05-29 04:15:00,67.3,66.7,30.09,WSW,245,0.0,17.0,98,0.00,,,0.00,Wunderground v.1.15,2013-05-29 08:15:00,
2013-05-29 04:20:00,67.3,66.7,30.09,WSW,245,0.0,17.0,98,0.00,,,0.00,Wunderground v.1.15,2013-05-29 08:20:00,
2013-05-29 04:30:00,67.1,66.5,30.09,WSW,245,0.0,17.0,98,0.00,,,0.00,Wunderground v.1.15,2013-05-29 08:30:00,
2013-05-29 04:35:00,67.1,66.5,30.09,WSW,245,0.0,17.0,98,0.00,,,0.00,Wunderground v.1.15,2013-05-29 08:35:00,
2013-05-29 04:40:00,67.0,66.4,30.09,WSW,245,0.0,17.0,98,0.00,,,0.00,Wunderground v.1.15,2013-05-29 08:40:00,
2013-05-29 04:50:00,66.9,66.6,30.09,WSW,245,0.0,17.0,99,0.00,,,0.00,Wunderground v.1.15,2013-05-29 08:50:00,
2013-05-29 04:55:00,66.9,66.6,30.09,WSW,245,0.0,17.0,99,0.00,,,0.00,Wunderground v.1.15,2013-05-29 08:55:00,
2013-05-29 05:00:00,66.8,66.5,30.09,WSW,245,0.0,17.0,99,0.00,,,0.00,Wunderground v.1.15,2013-05-29 09:00:00,
2013-05-29 05:05:00,66.8,66.5,30.09,WSW,245,0.0,17.0,99,0.00,,,0.00,Wunderground v.1.15,2013-05-29 09:05:00,
2013-05-29 05:15:00,66.7,66.4,30.09,WSW,245,0.0,17.0,99,0.00,,,0.00,Wunderground v.1.15,2013-05-29 09:15:00,
2013-05-29 05:20:00,66.7,66.4,30.09,WSW,245,0.0,17.0,99,0.00,,,0.00,Wunderground v.1.15,2013-05-29 09:20:00,
2013-05-29 05:25:00,66.6,66.0,30.09,WSW,245,0.0,17.0,98,0.00,,,0.00,Wunderground v.1.15,2013-05-29 09:25:00,
2013-05-29 05:30:00,66.5,66.2,30.09,WSW,245,0.0,17.0,99,0.00,,,0.00,Wunderground v.1.15,2013-05-29 09:30:00,
2013-05-29 05:35:00,66.4,66.1,30.09,WSW,245,0.0,17.0,99,0.00,,,0.00,Wunderground v.1.15,2013-05-29 09:35:00,
2013-05-29 05:45:00,66.2,65.9,30.09,WSW,245,0.0,17.0,99,0.00,,,0.00,Wunderground v.1.15,2013-05-29 09:45:00,
2013-05-29 05:50:00,66.2,65.9,30.09,WSW,245,0.0,17.0,99,0.00,,,0.00,Wunderground v.1.15,2013-05-29 09:50:00,
2013-05-29 05:55:00,66.2,65.9,30.10,WSW,245,0.0,17.0,99,0.00,,,0.00,Wunderground v.1.15,2013-05-29 09:55:00,
2013-05-29 06:00:00,66.2,65.9,30.10,WSW,245,0.0,17.0,99,0.00,,,0.00,Wunderground v.1.15,2013-05-29 10:00:00,
2013-05-29 06:05:00,66.1,65.8,30.10,WSW,245,0.0,17.0,99,0.00,,,0.00,Wunderground v.1.15,2013-05-29 10:05:00,
2013-05-29 06:15:00,66.0,65.7,30.10,WSW,245,0.0,17.0,99,0.00,,,0.00,Wunderground v.1.15,2013-05-29 10:15:00,
2013-05-29 06:20:00,66.0,65.7,30.10,WSW,245,0.0,17.0,99,0.00,,,0.00,Wunderground v.1.15,2013-05-29 10:20:00,
2013-05-29 06:25:00,66.0,65.7,30.10,WSW,245,0.0,17.0,99,0.00,,,0.00,Wunderground v.1.15,2013-05-29 10:25:00,
2013-05-29 06:30:00,65.9,65.6,30.10,WSW,245,0.0,17.0,99,0.00,,,0.00,Wunderground v.1.15,2013-05-29 10:30:00,
2013-05-29 06:40:00,66.2,66.2,30.10,WSW,245,0.0,17.0,100,0.00,,,0.00,Wunderground v.1.15,2013-05-29 10:40:00,
2013-05-29 06:45:00,66.3,66.3,30.10,WSW,245,0.0,17.0,100,0.00,,,0.00,Wunderground v.1.15,2013-05-29 10:45:00,
2013-05-29 06:50:00,66.5,66.5,30.10,WSW,245,0.0,17.0,100,0.00,,,0.00,Wunderground v.1.15,2013-05-29 10:50:00,
2013-05-29 06:55:00,66.7,66.7,30.10,WSW,245,0.0,17.0,100,0.00,,,0.00,Wunderground v.1.15,2013-05-29 10:55:00,
2013-05-29 07:00:00,66.9,66.9,30.10,WSW,245,0.0,17.0,100,0.00,,,0.00,Wunderground v.1.15,2013-05-29 11:00:00,
2013-05-29 07:10:00,67.5,67.5,30.11,WSW,245,0.0,17.0,100,0.00,,,0.00,Wunderground v.1.15,2013-05-29 11:10:00,
2013-05-29 07:15:00,67.9,67.6,30.11,WSW,245,0.0,17.0,99,0.00,,,0.00,Wunderground v.1.15,2013-05-29 11:15:00,
2013-05-29 07:20:00,68.2,67.9,30.11,WSW,245,0.0,17.0,99,0.00,,,0.00,Wunderground v.1.15,2013-05-29 11:20:00,
2013-05-29 07:25:00,68.5,67.9,30.11,WSW,245,0.0,17.0,98,0.00,,,0.00,Wunderground v.1.15,2013-05-29 11:25:00,
2013-05-29 07:35:00,69.2,68.3,30.11,WSW,245,0.0,17.0,97,0.00,,,0.00,Wunderground v.1.15,2013-05-29 11:35:00,
2013-05-29 07:40:00,69.5,68.3,30.11,WSW,245,0.0,17.0,96,0.00,,,0.00,Wunderground v.1.15,2013-05-29 11:40:00,
2013-05-29 07:45:00,69.9,68.4,30.11,WSW,245,0.0,17.0,95,0.00,,,0.00,Wunderground v.1.15,2013-05-29 11:45:00,
2013-05-29 07:50:00,70.1,68.3,30.11,WSW,245,0.0,17.0,94,0.00,,,0.00,Wunderground v.1.15,2013-05-29 11:50:00,
2013-05-29 07:55:00,70.3,68.5,30.11,SSE,159,1.0,17.0,94,0.00,,,0.00,Wunderground v.1.15,2013-05-29 11:55:00,
2013-05-29 08:05:00,70.8,68.7,30.11,SW,233,1.0,2.0,93,0.00,,,0.00,Wunderground v.1.15,2013-05-29 12:05:00,
2013-05-29 08:10:00,71.3,68.9,30.11,SW,236,1.0,17.0,92,0.00,,,0.01,Wunderground v.1.15,2013-05-29 12:10:00,
2013-05-29 08:15:00,71.6,68.8,30.11,WSW,240,2.0,17.0,91,0.00,,,0.01,Wunderground v.1.15,2013-05-29 12:15:00,
2013-05-29 08:20:00,71.8,69.0,30.12,SSW,209,1.0,17.0,91,0.00,,,0.01,Wunderground v.1.15,2013-05-29 12:20:00,
2013-05-29 08:25:00,71.9,68.8,30.12,WSW,240,1.0,17.0,90,0.00,,,0.01,Wunderground v.1.15,2013-05-29 12:25:00,
2013-05-29 08:35:00,72.5,69.1,30.13,WSW,240,2.0,17.0,89,0.00,,,0.01,Wunderground v.1.15,2013-05-29 12:35:00,
2013-05-29 08:40:00,72.9,69.5,30.13,SW,215,1.0,1.0,89,0.00,,,0.01,Wunderground v.1.15,2013-05-29 12:40:00,
2013-05-29 08:45:00,73.5,69.7,30.13,SSW,211,1.0,17.0,88,0.00,,,0.01,Wunderground v.1.15,2013-05-29 12:45:00,
2013-05-29 08:50:00,74.0,69.9,30.14,WSW,257,1.0,17.0,87,0.00,,,0.01,Wunderground v.1.15,2013-05-29 12:50:00,
2013-05-29 09:00:00,75.1,70.6,30.14,WSW,244,0.0,17.0,86,0.00,,,0.01,Wunderground v.1.15,2013-05-29 13:00:00,
2013-05-29 09:05:00,75.6,70.4,30.14,West,277,1.0,17.0,84,0.00,,,0.01,Wunderground v.1.15,2013-05-29 13:05:00,
2013-05-29 09:10:00,75.9,70.4,30.14,WSW,238,2.0,2.0,83,0.00,,,0.01,Wunderground v.1.15,2013-05-29 13:10:00,
2013-05-29 09:15:00,76.2,70.7,30.13,WSW,237,2.0,17.0,83,0.00,,,0.01,Wunderground v.1.15,2013-05-29 13:15:00,
2013-05-29 09:20:00,76.5,70.6,30.14,WSW,239,2.0,2.0,82,0.00,,,0.01,Wunderground v.1.15,2013-05-29 13:20:00,
2013-05-29 09:30:00,77.5,70.8,30.14,SW,234,1.0,17.0,80,0.00,,,0.01,Wunderground v.1.15,2013-05-29 13:30:00,
2013-05-29 09:35:00,77.7,71.0,30.14,SW,235,1.0,17.0,80,0.00,,,0.01,Wunderground v.1.15,2013-05-29 13:35:00,
2013-05-29 09:40:00,78.2,71.5,30.13,SW,234,1.0,17.0,80,0.00,,,0.01,Wunderground v.1.15,2013-05-29 13:40:00,
2013-05-29 09:45:00,78.7,71.3,30.13,West,260,1.0,17.0,78,0.00,,,0.01,Wunderground v.1.15,2013-05-29 13:45:00,
2013-05-29 09:55:00,79.2,72.1,30.13,SSW,195,1.0,4.0,79,0.00,,,0.01,Wunderground v.1.15,2013-05-29 13:55:00,
2013-05-29 10:00:00,79.9,72.4,30.13,SSW,205,1.0,17.0,78,0.00,,,0.01,Wunderground v.1.15,2013-05-29 14:00:00,
2013-05-29 10:05:00,80.6,72.7,30.13,SSW,205,1.0,17.0,77,0.00,,,0.01,Wunderground v.1.15,2013-05-29 14:05:00,
2013-05-29 10:10:00,81.1,72.4,30.13,SSW,205,1.0,1.0,75,0.00,,,0.01,Wunderground v.1.15,2013-05-29 14:10:00,
2013-05-29 10:15:00,81.5,72.0,30.13,SW,229,0.0,2.0,73,0.00,,,0.01,Wunderground v.1.15,2013-05-29 14:15:00,
2013-05-29 10:25:00,80.9,72.6,30.13,West,267,1.0,17.0,76,0.00,,,0.01,Wunderground v.1.15,2013-05-29 14:25:00,
2013-05-29 10:30:00,81.3,73.0,30.13,WSW,250,0.0,17.0,76,0.00,,,0.01,Wunderground v.1.15,2013-05-29 14:30:00,
2013-05-29 10:35:00,81.6,72.5,30.13,WSW,249,0.0,17.0,74,0.00,,,0.01,Wunderground v.1.15,2013-05-29 14:35:00,
2013-05-29 10:40:00,81.6,72.5,30.13,WSW,237,1.0,17.0,74,0.00,,,0.01,Wunderground v.1.15,2013-05-29 14:40:00,
2013-05-29 10:50:00,81.6,71.7,30.14,SW,231,1.0,17.0,72,0.00,,,0.01,Wunderground v.1.15,2013-05-29 14:50:00,
2013-05-29 10:55:00,81.6,72.5,30.14,SW,231,1.0,17.0,74,0.00,,,0.01,Wunderground v.1.15,2013-05-29 14:55:00,
2013-05-29 11:00:00,81.9,72.8,30.14,SW,230,0.0,17.0,74,0.00,,,0.01,Wunderground v.1.15,2013-05-29 15:00:00,
2013-05-29 11:05:00,82.3,72.8,30.14,SW,231,0.0,17.0,73,0.00,,,0.01,Wunderground v.1.15,2013-05-29 15:05:00,
2013-05-29 11:10:00,82.6,72.7,30.14,WSW,241,1.0,1.0,72,0.00,,,0.01,Wunderground v.1.15,2013-05-29 15:10:00,
2013-05-29 11:20:00,82.5,72.1,30.14,WSW,244,2.0,2.0,71,0.00,,,0.01,Wunderground v.1.15,2013-05-29 15:20:00,
2013-05-29 11:25:00,82.7,72.7,30.14,South,183,1.0,17.0,72,0.00,,,0.01,Wunderground v.1.15,2013-05-29 15:25:00,
2013-05-29 11:30:00,83.3,72.5,30.14,WSW,238,1.0,17.0,70,0.00,,,0.01,Wunderground v.1.15,2013-05-29 15:30:00,
2013-05-29 11:35:00,83.8,72.1,30.14,WSW,237,2.0,17.0,68,0.00,,,0.01,Wunderground v.1.15,2013-05-29 15:35:00,
2013-05-29 11:40:00,83.6,72.3,30.14,South,182,3.0,17.0,69,0.00,,,0.01,Wunderground v.1.15,2013-05-29 15:40:00,
2013-05-29 11:50:00,84.2,72.9,30.14,SW,218,1.0,1.0,69,0.00,,,0.01,Wunderground v.1.15,2013-05-29 15:50:00,
2013-05-29 11:55:00,84.7,73.0,30.13,SW,233,1.0,17.0,68,0.00,,,0.01,Wunderground v.1.15,2013-05-29 15:55:00,
2013-05-29 12:00:00,85.1,72.9,30.13,SW,233,1.0,1.0,67,0.00,,,0.01,Wunderground v.1.15,2013-05-29 16:00:00,
2013-05-29 12:05:00,85.2,72.6,30.13,NW,306,1.0,17.0,66,0.00,,,0.01,Wunderground v.1.15,2013-05-29 16:05:00,
2013-05-29 12:15:00,85.8,73.1,30.13,SW,235,1.0,17.0,66,0.00,,,0.01,Wunderground v.1.15,2013-05-29 16:15:00,
2013-05-29 12:20:00,86.1,73.0,30.13,SW,236,2.0,2.0,65,0.00,,,0.01,Wunderground v.1.15,2013-05-29 16:20:00,
2013-05-29 12:25:00,86.6,72.5,30.13,SSW,206,2.0,17.0,63,0.00,,,0.01,Wunderground v.1.15,2013-05-29 16:25:00,
2013-05-29 12:30:00,87.0,72.4,30.13,WSW,248,3.0,3.0,62,0.00,,,0.01,Wunderground v.1.15,2013-05-29 16:30:00,
2013-05-29 12:35:00,87.1,71.5,30.13,South,174,2.0,17.0,60,0.00,,,0.01,Wunderground v.1.15,2013-05-29 16:35:00,
2013-05-29 12:45:00,87.4,71.3,30.13,West,277,2.0,17.0,59,0.00,,,0.01,Wunderground v.1.15,2013-05-29 16:45:00,
2013-05-29 12:50:00,87.1,70.0,30.13,West,279,3.0,3.0,57,0.00,,,0.01,Wunderground v.1.15,2013-05-29 16:50:00,
2013-05-29 12:55:00,87.4,68.7,30.13,WSW,256,4.0,4.0,54,0.00,,,0.01,Wunderground v.1.15,2013-05-29 16:55:00,
2013-05-29 13:00:00,88.1,68.8,30.13,West,261,2.0,17.0,53,0.00,,,0.01,Wunderground v.1.15,2013-05-29 17:00:00,
2013-05-29 13:10:00,88.6,69.3,30.13,West,281,2.0,2.0,53,0.00,,,0.01,Wunderground v.1.15,2013-05-29 17:10:00,
2013-05-29 13:15:00,88.6,69.8,30.12,West,273,1.0,4.0,54,0.00,,,0.01,Wunderground v.1.15,2013-05-29 17:15:00,
2013-05-29 13:20:00,88.3,69.5,30.12,WSW,253,2.0,17.0,54,0.00,,,0.01,Wunderground v.1.15,2013-05-29 17:20:00,
2013-05-29 13:25:00,88.6,69.8,30.12,WSW,252,2.0,17.0,54,0.00,,,0.01,Wunderground v.1.15,2013-05-29 17:25:00,
2013-05-29 13:30:00,89.2,69.8,30.12,West,281,2.0,17.0,53,0.00,,,0.01,Wunderground v.1.15,2013-05-29 17:30:00,
2013-05-29 13:40:00,89.0,69.6,30.12,WSW,238,2.0,2.0,53,0.00,,,0.01,Wunderground v.1.15,2013-05-29 17:40:00,
2013-05-29 13:45:00,89.0,70.2,30.11,South,177,2.0,17.0,54,0.00,,,0.01,Wunderground v.1.15,2013-05-29 17:45:00,
2013-05-29 13:50:00,89.8,70.4,30.11,SW,228,2.0,17.0,53,0.00,,,0.01,Wunderground v.1.15,2013-05-29 17:50:00,
2013-05-29 13:55:00,90.0,70.0,30.11,West,259,2.0,17.0,52,0.00,,,0.01,Wunderground v.1.15,2013-05-29 17:55:00,
2013-05-29 14:00:00,89.9,69.9,30.11,WSW,238,2.0,17.0,52,0.00,,,0.01,Wunderground v.1.15,2013-05-29 18:00:00,
2013-05-29 14:10:00,89.3,69.9,30.11,WNW,286,3.0,17.0,53,0.00,,,0.01,Wunderground v.1.15,2013-05-29 18:10:00,
2013-05-29 14:15:00,88.9,70.1,30.11,West,262,3.0,17.0,54,0.00,,,0.01,Wunderground v.1.15,2013-05-29 18:15:00,
2013-05-29 14:20:00,88.8,70.0,30.11,West,267,2.0,2.0,54,0.00,,,0.01,Wunderground v.1.15,2013-05-29 18:20:00,
2013-05-29 14:25:00,88.9,70.1,30.11,West,269,2.0,3.0,54,0.00,,,0.01,Wunderground v.1.15,2013-05-29 18:25:00,
2013-05-29 14:35:00,89.0,69.6,30.11,West,269,2.0,17.0,53,0.00,,,0.01,Wunderground v.1.15,2013-05-29 18:35:00,
2013-05-29 14:40:00,89.4,70.0,30.10,SW,230,2.0,17.0,53,0.00,,,0.01,Wunderground v.1.15,2013-05-29 18:40:00,
2013-05-29 14:45:00,89.7,70.3,30.11,SW,217,3.0,17.0,53,0.00,,,0.01,Wunderground v.1.15,2013-05-29 18:45:00,
2013-05-29 14:50:00,89.1,68.6,30.10,WNW,283,4.0,4.0,51,0.00,,,0.01,Wunderground v.1.15,2013-05-29 18:50:00,
2013-05-29 15:00:00,90.3,69.7,30.10,West,261,2.0,17.0,51,0.00,,,0.01,Wunderground v.1.15,2013-05-29 19:00:00,
2013-05-29 15:05:00,90.4,69.2,30.10,WSW,250,3.0,17.0,50,0.00,,,0.01,Wunderground v.1.15,2013-05-29 19:05:00,
2013-05-29 15:10:00,90.2,69.6,30.10,SW,229,4.0,17.0,51,0.00,,,0.01,Wunderground v.1.15,2013-05-29 19:10:00,
2013-05-29 15:15:00,90.1,69.0,30.10,SW,232,5.0,17.0,50,0.00,,,0.01,Wunderground v.1.15,2013-05-29 19:15:00,
2013-05-29 15:20:00,89.8,69.8,30.10,SW,229,5.0,5.0,52,0.00,,,0.01,Wunderground v.1.15,2013-05-29 19:20:00,
2013-05-29 15:30:00,90.0,70.6,30.10,SW,236,4.0,4.0,53,0.00,,,0.01,Wunderground v.1.15,2013-05-29 19:30:00,
2013-05-29 15:35:00,90.6,71.1,30.10,WSW,244,4.0,10.0,53,0.00,,,0.01,Wunderground v.1.15,2013-05-29 19:35:00,
2013-05-29 15:40:00,91.2,71.1,30.10,West,273,3.0,17.0,52,0.00,,,0.01,Wunderground v.1.15,2013-05-29 19:40:00,
2013-05-29 15:45:00,91.0,70.9,30.10,West,260,3.0,17.0,52,0.00,,,0.01,Wunderground v.1.15,2013-05-29 19:45:00,
2013-05-29 15:50:00,90.5,72.1,30.09,WSW,238,3.0,17.0,55,0.00,,,0.01,Wunderground v.1.15,2013-05-29 19:50:00,
2013-05-29 16:00:00,89.8,71.5,30.09,SW,230,4.0,4.0,55,0.00,,,0.01,Wunderground v.1.15,2013-05-29 20:00:00,
2013-05-29 16:05:00,89.8,72.5,30.09,South,180,4.0,17.0,57,0.00,,,0.01,Wunderground v.1.15,2013-05-29 20:05:00,
2013-05-29 16:10:00,89.9,73.1,30.09,SW,221,2.0,17.0,58,0.00,,,0.01,Wunderground v.1.15,2013-05-29 20:10:00,
2013-05-29 16:15:00,89.6,72.9,30.09,SSW,201,1.0,17.0,58,0.00,,,0.01,Wunderground v.1.15,2013-05-29 20:15:00,
2013-05-29 16:20:00,89.4,73.2,30.08,WSW,237,2.0,2.0,59,0.00,,,0.01,Wunderground v.1.15,2013-05-29 20:20:00,
2013-05-29 16:30:00,89.9,72.1,30.09,South,175,1.0,17.0,56,0.00,,,0.01,Wunderground v.1.15,2013-05-29 20:30:00,
2013-05-29 16:35:00,90.0,71.7,30.08,SW,234,2.0,17.0,55,0.00,,,0.01,Wunderground v.1.15,2013-05-29 20:35:00,
2013-05-29 16:40:00,90.2,72.4,30.08,ESE,111,2.0,2.0,56,0.00,,,0.01,Wunderground v.1.15,2013-05-29 20:40:00,
2013-05-29 16:45:00,90.0,72.2,30.08,South,169,2.0,17.0,56,0.00,,,0.01,Wunderground v.1.15,2013-05-29 20:45:00,
2013-05-29 16:55:00,90.0,70.6,30.09,South,184,4.0,4.0,53,0.00,,,0.01,Wunderground v.1.15,2013-05-29 20:55:00,
2013-05-29 17:00:00,89.6,70.2,30.09,SW,227,4.0,17.0,53,0.00,,,0.01,Wunderground v.1.15,2013-05-29 21:00:00,
2013-05-29 17:05:00,89.4,71.1,30.09,SW,230,3.0,17.0,55,0.00,,,0.01,Wunderground v.1.15,2013-05-29 21:05:00,
2013-05-29 17:10:00,89.7,71.4,30.09,WSW,246,2.0,17.0,55,0.00,,,0.01,Wunderground v.1.15,2013-05-29 21:10:00,
2013-05-29 17:20:00,89.7,70.8,30.08,SW,234,2.0,17.0,54,0.00,,,0.01,Wunderground v.1.15,2013-05-29 21:20:00,
2013-05-29 17:25:00,89.7,70.8,30.08,WSW,257,2.0,17.0,54,0.00,,,0.01,Wunderground v.1.15,2013-05-29 21:25:00,
2013-05-29 17:30:00,89.9,70.5,30.08,West,268,3.0,3.0,53,0.00,,,0.01,Wunderground v.1.15,2013-05-29 21:30:00,
2013-05-29 17:35:00,89.8,70.9,30.08,West,268,3.0,7.0,54,0.00,,,0.01,Wunderground v.1.15,2013-05-29 21:35:00,
2013-05-29 17:40:00,89.5,70.7,30.08,WSW,239,3.0,17.0,54,0.00,,,0.01,Wunderground v.1.15,2013-05-29 21:40:00,
2013-05-29 17:50:00,89.0,70.2,30.08,SSW,199,2.0,2.0,54,0.00,,,0.01,Wunderground v.1.15,2013-05-29 21:50:00,
2013-05-29 17:55:00,88.7,69.4,30.08,WSW,256,3.0,4.0,53,0.00,,,0.01,Wunderground v.1.15,2013-05-29 21:55:00,
2013-05-29 18:00:00,88.5,69.7,30.08,SSW,196,3.0,3.0,54,0.00,,,0.01,Wunderground v.1.15,2013-05-29 22:00:00,
2013-05-29 18:05:00,88.9,70.1,30.08,SSW,209,2.0,17.0,54,0.00,,,0.01,Wunderground v.1.15,2013-05-29 22:05:00,
2013-05-29 18:10:00,88.8,70.0,30.08,SSW,209,0.0,17.0,54,0.00,,,0.01,Wunderground v.1.15,2013-05-29 22:10:00,
2013-05-29 18:20:00,88.4,70.2,30.08,West,274,1.0,17.0,55,0.00,,,0.01,Wunderground v.1.15,2013-05-29 22:20:00,
2013-05-29 18:25:00,88.3,69.5,30.08,SSW,211,1.0,17.0,54,0.00,,,0.01,Wunderground v.1.15,2013-05-29 22:25:00,
2013-05-29 18:30:00,88.2,70.0,30.08,West,264,2.0,17.0,55,0.00,,,0.01,Wunderground v.1.15,2013-05-29 22:30:00,
2013-05-29 18:35:00,88.0,69.8,30.08,West,271,2.0,17.0,55,0.00,,,0.01,Wunderground v.1.15,2013-05-29 22:35:00,
2013-05-29 18:40:00,87.8,70.1,30.08,SSE,150,2.0,2.0,56,0.00,,,0.01,Wunderground v.1.15,2013-05-29 22:40:00,
2013-05-29 18:50:00,87.4,70.3,30.08,WSW,237,2.0,17.0,57,0.00,,,0.01,Wunderground v.1.15,2013-05-29 22:50:00,
2013-05-29 18:55:00,87.5,70.4,30.09,WSW,251,2.0,17.0,57,0.00,,,0.01,Wunderground v.1.15,2013-05-29 22:55:00,
2013-05-29 19:00:00,87.6,70.5,30.09,WSW,241,1.0,17.0,57,0.00,,,0.01,Wunderground v.1.15,2013-05-29 23:00:00,
2013-05-29 19:10:00,87.9,70.8,30.09,WSW,246,2.0,17.0,57,0.00,,,0.01,Wunderground v.1.15,2013-05-29 23:10:00,
2013-05-29 19:15:00,87.9,70.8,30.09,SSW,209,2.0,17.0,57,0.00,,,0.01,Wunderground v.1.15,2013-05-29 23:15:00,
2013-05-29 19:20:00,87.7,70.1,30.08,SSW,196,2.0,2.0,56,0.00,,,0.01,Wunderground v.1.15,2013-05-29 23:20:00,
2013-05-29 19:25:00,87.4,70.3,30.08,WSW,254,2.0,17.0,57,0.00,,,0.01,Wunderground v.1.15,2013-05-29 23:25:00,
2013-05-29 19:30:00,87.1,70.0,30.08,SW,232,2.0,17.0,57,0.00,,,0.01,Wunderground v.1.15,2013-05-29 23:30:00,
2013-05-29 19:40:00,86.5,70.5,30.08,SW,227,1.0,17.0,59,0.00,,,0.01,Wunderground v.1.15,2013-05-29 23:40:00,
2013-05-29 19:45:00,86.2,70.2,30.09,SW,234,2.0,17.0,59,0.00,,,0.01,Wunderground v.1.15,2013-05-29 23:45:00,
2013-05-29 19:50:00,85.9,69.9,30.08,SW,233,2.0,2.0,59,0.00,,,0.01,Wunderground v.1.15,2013-05-29 23:50:00,
2013-05-29 19:55:00,85.6,70.1,30.08,WSW,250,2.0,17.0,60,0.00,,,0.01,Wunderground v.1.15,2013-05-29 23:55:00,
2013-05-29 20:00:00,85.4,69.9,30.08,SW,234,1.0,17.0,60,0.00,,,0.01,Wunderground v.1.15,2013-05-30 00:00:00,
2013-05-29 20:10:00,84.9,69.9,30.08,SW,232,1.0,1.0,61,0.00,,,0.01,Wunderground v.1.15,2013-05-30 00:10:00,
2013-05-29 20:15:00,84.6,70.1,30.08,SW,232,1.0,17.0,62,0.00,,,0.01,Wunderground v.1.15,2013-05-30 00:15:00,
2013-05-29 20:20:00,84.4,70.0,30.08,SW,219,0.0,17.0,62,0.00,,,0.01,Wunderground v.1.15,2013-05-30 00:20:00,
2013-05-29 20:25:00,84.2,70.2,30.08,SW,221,0.0,17.0,63,0.00,,,0.01,Wunderground v.1.15,2013-05-30 00:25:00,
2013-05-29 20:30:00,84.0,70.0,30.08,SW,221,0.0,17.0,63,0.00,,,0.01,Wunderground v.1.15,2013-05-30 00:30:00,
2013-05-29 20:40:00,83.6,70.1,30.09,SW,232,0.0,17.0,64,0.00,,,0.01,Wunderground v.1.15,2013-05-30 00:40:00,
2013-05-29 20:45:00,83.4,69.9,30.08,SW,232,1.0,17.0,64,0.00,,,0.01,Wunderground v.1.15,2013-05-30 00:45:00,
2013-05-29 20:50:00,83.3,69.8,30.08,SW,232,1.0,17.0,64,0.00,,,0.01,Wunderground v.1.15,2013-05-30 00:50:00,
2013-05-29 20:55:00,83.1,70.1,30.09,SW,232,0.0,17.0,65,0.00,,,0.01,Wunderground v.1.15,2013-05-30 00:55:00,
2013-05-29 21:00:00,82.9,69.9,30.08,SW,232,0.0,17.0,65,0.00,,,0.01,Wunderground v.1.15,2013-05-30 01:00:00,
2013-05-29 21:10:00,82.6,70.1,30.08,SW,236,1.0,17.0,66,0.00,,,0.01,Wunderground v.1.15,2013-05-30 01:10:00,
2013-05-29 21:15:00,82.4,69.9,30.08,SW,236,1.0,17.0,66,0.00,,,0.01,Wunderground v.1.15,2013-05-30 01:15:00,
2013-05-29 21:20:00,82.2,69.7,30.09,SW,236,0.0,17.0,66,0.00,,,0.01,Wunderground v.1.15,2013-05-30 01:20:00,
2013-05-29 21:30:00,81.9,69.9,30.08,WSW,237,0.0,17.0,67,0.00,,,0.01,Wunderground v.1.15,2013-05-30 01:30:00,
2013-05-29 21:35:00,81.8,69.8,30.09,SW,221,1.0,17.0,67,0.00,,,0.01,Wunderground v.1.15,2013-05-30 01:35:00,
2013-05-29 21:40:00,81.7,70.1,30.09,SW,221,1.0,1.0,68,0.00,,,0.01,Wunderground v.1.15,2013-05-30 01:40:00,
2013-05-29 21:45:00,81.5,69.9,30.09,SW,229,0.0,2.0,68,0.00,,,0.01,Wunderground v.1.15,2013-05-30 01:45:00,
2013-05-29 21:50:00,81.4,69.8,30.09,WSW,246,1.0,17.0,68,0.00,,,0.01,Wunderground v.1.15,2013-05-30 01:50:00,
2013-05-29 22:00:00,81.2,70.1,30.09,SSW,195,2.0,2.0,69,0.00,,,0.01,Wunderground v.1.15,2013-05-30 02:00:00,
2013-05-29 22:05:00,81.0,69.9,30.09,SW,235,0.0,17.0,69,0.00,,,0.01,Wunderground v.1.15,2013-05-30 02:05:00,
2013-05-29 22:10:00,80.9,69.8,30.10,SW,226,1.0,1.0,69,0.00,,,0.01,Wunderground v.1.15,2013-05-30 02:10:00,
2013-05-29 22:15:00,80.8,69.7,30.10,SW,226,1.0,2.0,69,0.00,,,0.01,Wunderground v.1.15,2013-05-30 02:15:00,
2013-05-29 22:20:00,80.7,70.0,30.10,SW,228,1.0,1.0,70,0.00,,,0.01,Wunderground v.1.15,2013-05-30 02:20:00,
2013-05-29 22:30:00,80.4,69.7,30.10,SW,230,1.0,17.0,70,0.00,,,0.01,Wunderground v.1.15,2013-05-30 02:30:00,
2013-05-29 22:35:00,80.3,69.6,30.10,SW,228,2.0,17.0,70,0.00,,,0.01,Wunderground v.1.15,2013-05-30 02:35:00,
2013-05-29 22:40:00,80.2,69.9,30.10,SSW,203,2.0,2.0,71,0.00,,,0.01,Wunderground v.1.15,2013-05-30 02:40:00,
2013-05-29 22:45:00,80.1,69.8,30.10,SW,232,2.0,17.0,71,0.00,,,0.01,Wunderground v.1.15,2013-05-30 02:45:00,
2013-05-29 22:55:00,79.8,70.0,30.10,South,175,1.0,17.0,72,0.00,,,0.01,Wunderground v.1.15,2013-05-30 02:55:00,
2013-05-29 23:00:00,79.6,69.8,30.10,WSW,240,1.0,17.0,72,0.00,,,0.01,Wunderground v.1.15,2013-05-30 03:00:00,
2013-05-29 23:05:00,79.5,70.1,30.10,West,277,1.0,17.0,73,0.00,,,0.01,Wunderground v.1.15,2013-05-30 03:05:00,
2013-05-29 23:10:00,79.3,69.9,30.10,West,267,1.0,1.0,73,0.00,,,0.01,Wunderground v.1.15,2013-05-30 03:10:00,
2013-05-29 23:20:00,79.1,70.1,30.10,WSW,241,1.0,1.0,74,0.00,,,0.01,Wunderground v.1.15,2013-05-30 03:20:00,
2013-05-29 23:25:00,78.9,69.9,30.11,WSW,241,1.0,5.0,74,0.00,,,0.01,Wunderground v.1.15,2013-05-30 03:25:00,
2013-05-29 23:30:00,78.8,69.8,30.11,SW,234,1.0,17.0,74,0.00,,,0.01,Wunderground v.1.15,2013-05-30 03:30:00,
2013-05-29 23:35:00,78.7,69.7,30.11,WSW,238,2.0,17.0,74,0.00,,,0.01,Wunderground v.1.15,2013-05-30 03:35:00,
2013-05-29 23:40:00,78.7,70.1,30.11,WSW,248,2.0,2.0,75,0.00,,,0.01,Wunderground v.1.15,2013-05-30 03:40:00,
2013-05-29 23:50:00,78.4,69.8,30.11,WSW,237,2.0,2.0,75,0.00,,,0.01,Wunderground v.1.15,2013-05-30 03:50:00,
2013-05-29 23:55:00,78.2,69.6,30.11,WSW,240,1.0,17.0,75,0.00,,,0.01,Wunderground v.1.15,2013-05-30 03:55:00,